Regional Weather Roundup
Issued by NWS Charleston, SC

Current Version | Previous Version | Graphics & Text | Print | Product List | Glossary On
Versions: 1 2 3 4 5 6 7 8 9 10 11 12 13 14 15 16 17 18 19 20 21 22 23 24 25 26 27 28 29 30 31 32 33 34 35 36 37 38 39 40 41 42 43 44 45 46 47 48 49 50
000
ASUS42 KCHS 010126
RWRCHS

REGIONAL WEATHER ROUNDUP
NATIONAL WEATHER SERVICE CHARLESTON SC
800 PM EST SAT FEB 28 2015

NOTE: "FAIR" INDICATES FEW OR NO CLOUDS BELOW 12,000 FEET WITH NO
SIGNIFICANT WEATHER AND/OR OBSTRUCTIONS TO VISIBILITY.

NOT ALL STATIONS ARE QUALITY CONTROLLED BY THE NATIONAL
WEATHER SERVICE. USE DATA WITH CAUTION...ESPECIALLY
DEWPOINT OBSERVATIONS.

SCZ027-030-031-034>040-042>050-010200-
...SOUTHEAST SOUTH CAROLINA...

CITY           SKY/WX    TMP DP  RH WIND       PRES   REMARKS
N CHARLESTON   CLOUDY    47  34  60 NE10      30.59R
WATERFRONT PRK   N/A     46 N/A N/A NE13        N/A
MOUNT PLEASANT CLOUDY    46  32  57 N5        30.60R
PINOPOLIS        N/A     48  36  61 NE10      30.52R
MONCKS CORNER  LGT RAIN  48  34  57 NE7       30.60R
SUMMERVILLE    CLOUDY    46  36  66 N6        30.60R
BEAUFORT MCAS  CLOUDY    46  37  71 NE6       30.55
BEAUFORT ARPT  DRIZZLE   45  37  76 NE13G18   30.55S
HILTON HEAD IS CLOUDY    46  34  61 N16G22    30.56R
WALTERBORO     CLOUDY    46  36  66 NE7       30.58S
ALLENDALE      LGT RAIN  46  39  76 NE5       30.57R

...SOUTHERN MIDLANDS AND PEE DEE...

CITY           SKY/WX    TMP DP  RH WIND       PRES   REMARKS
GEORGETOWN     NOT AVBL
KINGSTREE      NOT AVBL
ORANGEBURG     CLOUDY    47  29  49 NE7       30.60S
BARNWELL       CLOUDY    46  34  61 NE9       30.59R
AIKEN          CLOUDY    43  36  75 E6        30.61S
MANNING        CLOUDY    46  28  49 NE7       30.61R
COLUMBIA       CLOUDY    48  25  40 E9        30.60S
SUMTER         MOCLDY    45  27  49 NE9       30.61R
FLORENCE       MOCLDY    43  23  45 NE12      30.64R
MYRTLE BEACH   CLOUDY    46  25  42 NE14      30.63S
N MYRTLE BEACH CLOUDY    44  25  47 NE13      30.62R

$$

GAZ063-065-086>088-099>101-113>116-118-119-134>141-150-010200-
...SOUTHEAST GEORGIA...

CITY           SKY/WX    TMP DP  RH WIND       PRES   REMARKS
SAVANNAH ARPT  CLOUDY    44  37  76 NE12      30.54R
HUNTER AAF     CLOUDY    46  35  67 NE9G16    30.51R
FORT STEWART   CLOUDY    44  38  81 NE8G17    30.51R
STATESBORO     LGT RAIN  44  44 100 NE6       30.56R
SYLVANIA       DRIZZLE   44  42  95 NE6       30.56S
CLAXTON        DRIZZLE   43  43 100 NE10      30.54S

...CSRA...CENTRAL AND FAR SOUTHEAST GEORGIA...

CITY           SKY/WX    TMP DP  RH WIND       PRES   REMARKS
THOMSON        CLOUDY    49  35  58 NE8       30.60F
AUGUSTA-BUSH   LGT RAIN  46  38  73 NE7       30.58R
AUGUSTA-DANIEL CLOUDY    47  35  63 NE9       30.58R
SWAINSBORO     DRIZZLE   45  43  93 NE8       30.56R
VIDALIA        RAIN      43  43 100 NE9       30.54R
EASTMAN        DRIZZLE   43  43 100 E7        30.55S
HAZLEHURST     DRIZZLE   44  44 100 NE9       30.52S
ALMA           CLOUDY    43  41  93 NE7       30.50S
WAYCROSS       CLOUDY    47  45  94 E10G17    30.50S
JESUP          CLOUDY    45  43  93 NE8       30.52R
BAXLEY         CLOUDY    45  43  93 NE12G17   30.52R FOG
BRUNSWICK      CLOUDY    46  41  81 NE13G23   30.51R
SAINT SIMONS   CLOUDY    46  42  86 NE18G28   30.49R

$$

SCZ027-028-034-036>038-045-046-048>050-GAZ119-141-010200-
...LAKE AND SUPPLEMENTAL COASTAL OBSERVATIONS...

STATION/POSITION TIME  TEMP    WIND        PRES    WAVE   SWELL
                       AIR SEA DIR/SP/G            HT/PER HT/PER/DIR
                 (UTC) (F)     (DEG/KT/KT) (MB)    (FT/S) (FT/S/D)
UPR LAKE MARION  NOT AVBL
WINYAH BAY       0000   46      40/ 11     1035.0
LAKE MURRAY      0100   45      30/  3/  4 1035.9R
ACE BASIN NERRS  NOT AVBL
FORT PULASKI     0000   46 49   30/ 18/ 22 1034.2
SAPELO ISLAND    0100   45      30/ 14     1032.0S

$$

ANZ835-935-AMZ111-154-330-350-352-354-370-450-454-472-010200-
...C-MAN AND BUOY OBSERVATIONS...

STATION/POSITION TIME  TEMP    WIND        PRES    WAVE   SWELL
                       AIR SEA DIR/SP/G            HT/PER HT/PER/DIR
                 (UTC) (F)     (DEG/KT/KT) (MB)    (FT/S) (FT/S/D)
BUOY 41004       0050   54 68   40/ 29/ 35 1032.8F  10/ 9
BUOY 41008       0050   51 52   40/ 25/ 29 1031.4R   9/ 7
FOLLY BEACH CMAN 0100   46      40/ 22/ 25 1035.8R
CAPERS NEARSHORE NOT AVBL
FRIPP NEARSHORE  0000   48      50/ 25/ 33 1032.8R


STATION/POSITION TIME  TEMP    WIND        PRES    WAVE   SWELL
                       AIR SEA DIR/SP/G            HT/PER HT/PER/DIR
                 (UTC) (F)     (DEG/KT/KT) (MB)    (FT/S) (FT/S/D)
5E ST. MARYS GA  0021      52                N/A     9/ 6   2/ 80/11
FRYING PAN BUOY  0050   49 62   50/ 25/ 31 1036.2R   9/ 7   2/120/10
BUOY 41025       NOT AVBL
CAPE LOOKOUT NC  0100   36      20/ 16/ 18 1038.8R
BUOY 41002       0050   65 70   60/ 25/ 33 1033.2R  11/ 8
BUOY 41010       0020   71 73   90/ 21/ 25 1027.8R
ST AUGUSTINE FL  0100   54     350/ 21/ 23 1030.1R


$$


USA.gov is the U.S. government's official web portal to all federal, state and local government web resources and services.